This is the latest recevied weather packets stored in our database for station/object KF7U. If no packets are shown the sender has not sent any weather packets the latest 10 day(s).
| Time | Temp. | Humidity | Pressure | Rain* | Wind** | Luminosity | Snow |
|---|---|---|---|---|---|---|---|
| 1788192488 | 22.78° C | 88% | 1017.9 hPa | 1.27 mm | - | - | - |
| 1788192187 | 22.78° C | 88% | 1017.9 hPa | 1.02 mm | - | - | - |
| 1788191889 | 22.78° C | 88% | 1017.9 hPa | 1.02 mm | - | - | - |
| 1788191588 | 22.78° C | 87% | 1017.9 hPa | 0.76 mm | - | - | - |
| 1788191288 | 23.33° C | 85% | 1017.6 hPa | 0.25 mm | - | - | - |
| 1788190988 | 23.33° C | 84% | 1017.6 hPa | 0 mm | - | - | - |
| 1788190693 | 23.89° C | 82% | 1017.6 hPa | 0 mm | - | - | - |
| 1788190390 | 24.44° C | 79% | 1017.6 hPa | 0 mm | - | - | - |
| 1788190095 | 23.89° C | 79% | 1017.6 hPa | 0 mm | - | - | - |
| 1788189788 | 24.44° C | 81% | 1017.9 hPa | 0 mm | - | - | - |
| 1788189488 | 24.44° C | 81% | 1017.9 hPa | 0 mm | - | - | - |
| 1788189188 | 24.44° C | 79% | 1017.6 hPa | 0 mm | - | - | - |
| 1788188887 | 24.44° C | 79% | 1017.6 hPa | 0 mm | - | - | - |
| 1788188589 | 24.44° C | 78% | 1017.6 hPa | 0 mm | - | - | - |
| 1788188287 | 23.89° C | 79% | 1016.9 hPa | 0.25 mm | - | - | - |
| 1788187988 | 23.89° C | 79% | 1016.9 hPa | 0.25 mm | - | - | - |
| 1788187688 | 23.89° C | 80% | 1016.6 hPa | 0.25 mm | - | - | - |
| 1788187388 | 23.89° C | 80% | 1016.6 hPa | 0.25 mm | - | - | - |
| 1788187087 | 23.89° C | 81% | 1016.6 hPa | 0.51 mm | - | - | - |
| 1788186788 | 23.89° C | 82% | 1016.6 hPa | 0.51 mm | - | - | - |
| 1788186490 | 23.33° C | 83% | 1016.3 hPa | 0.51 mm | - | - | - |
| 1788186187 | 23.33° C | 84% | 1016.3 hPa | 0.51 mm | - | - | - |
| 1788185888 | 23.33° C | 84% | 1016.3 hPa | 0.76 mm | - | - | - |
| 1788185588 | 23.33° C | 85% | 1016.3 hPa | 0.76 mm | - | - | - |
| 1788185288 | 23.33° C | 84% | 1015.9 hPa | 0.51 mm | - | - | - |
* Rain latest hour (hover to see other rain measurements)
** Current wind speed in m/s (hover to see current wind gust speed)